Time,TemperatureF,DewpointF,PressureIn,WindDirection,WindDirectionDegrees,WindSpeedMPH,WindSpeedGustMPH,Humidity,HourlyPrecipIn,Conditions,Clouds,dailyrainin,SoftwareType,DateUTC
2013-06-04 00:02:00,63.9,58.0,29.74,ESE,111,0.0,0.0,81,0.00,,SKC,0.00,VWS V14.01,2013-06-04 05:02:00,
2013-06-04 00:07:00,63.9,58.0,29.74,ESE,111,0.0,2.0,81,0.00,,SKC,0.00,VWS V14.01,2013-06-04 05:07:00,
2013-06-04 00:12:00,63.8,57.9,29.74,ESE,117,0.0,6.0,81,0.00,,SKC,0.00,VWS V14.01,2013-06-04 05:12:00,
2013-06-04 00:17:00,63.8,57.9,29.74,ESE,115,0.0,4.0,81,0.00,,SKC,0.00,VWS V14.01,2013-06-04 05:17:00,
2013-06-04 00:22:00,63.7,57.8,29.74,ESE,112,0.0,4.0,81,0.00,,SKC,0.00,VWS V14.01,2013-06-04 05:22:00,
2013-06-04 00:27:00,63.6,58.0,29.73,ESE,112,0.0,4.0,82,0.00,,SKC,0.00,VWS V14.01,2013-06-04 05:27:00,
2013-06-04 00:32:00,63.6,58.0,29.73,ESE,113,0.0,4.0,82,0.00,,SKC,0.00,VWS V14.01,2013-06-04 05:32:00,
2013-06-04 00:37:00,63.5,57.9,29.73,East,100,0.0,6.0,82,0.00,,SKC,0.00,VWS V14.01,2013-06-04 05:37:00,
2013-06-04 00:42:00,63.5,57.9,29.73,East,99,0.0,6.0,82,0.00,,SKC,0.00,VWS V14.01,2013-06-04 05:42:00,
2013-06-04 00:48:00,63.5,57.9,29.73,East,99,0.0,3.0,82,0.00,,SKC,0.00,VWS V14.01,2013-06-04 05:48:00,
2013-06-04 00:53:00,63.4,57.8,29.73,East,99,1.0,3.0,82,0.00,,SKC,0.00,VWS V14.01,2013-06-04 05:53:00,
2013-06-04 00:58:00,63.3,57.7,29.73,East,83,7.0,7.0,82,0.00,,SKC,0.00,VWS V14.01,2013-06-04 05:58:00,
2013-06-04 01:03:00,63.2,57.6,29.72,East,88,0.0,7.0,82,0.00,,SKC,0.00,VWS V14.01,2013-06-04 06:03:00,
2013-06-04 01:08:00,63.1,57.9,29.71,East,89,0.0,1.0,83,0.00,,SKC,0.00,VWS V14.01,2013-06-04 06:08:00,
2013-06-04 01:13:00,63.0,57.8,29.72,East,93,0.0,1.0,83,0.00,,SKC,0.00,VWS V14.01,2013-06-04 06:13:00,
2013-06-04 01:18:00,63.0,57.8,29.72,East,97,0.0,1.0,83,0.00,,SKC,0.00,VWS V14.01,2013-06-04 06:18:00,
2013-06-04 01:23:00,62.9,57.7,29.71,East,96,1.0,6.0,83,0.00,,SKC,0.00,VWS V14.01,2013-06-04 06:23:00,
2013-06-04 01:28:00,62.9,57.7,29.71,East,94,0.0,4.0,83,0.00,,SKC,0.00,VWS V14.01,2013-06-04 06:28:00,
2013-06-04 01:33:00,62.9,58.0,29.71,East,96,0.0,4.0,84,0.00,,SKC,0.00,VWS V14.01,2013-06-04 06:33:00,
2013-06-04 01:38:00,62.8,57.9,29.71,East,96,0.0,2.0,84,0.00,,SKC,0.00,VWS V14.01,2013-06-04 06:38:00,
2013-06-04 01:43:00,62.7,57.8,29.71,East,99,0.0,3.0,84,0.00,,SKC,0.00,VWS V14.01,2013-06-04 06:43:00,
2013-06-04 01:48:00,62.7,57.8,29.71,ESE,103,0.0,2.0,84,0.00,,SKC,0.00,VWS V14.01,2013-06-04 06:48:00,
2013-06-04 01:53:00,62.7,57.5,29.71,ESE,106,0.0,2.0,83,0.00,,SKC,0.00,VWS V14.01,2013-06-04 06:53:00,
2013-06-04 01:58:00,62.7,57.8,29.71,ESE,106,0.0,1.0,84,0.00,,SKC,0.00,VWS V14.01,2013-06-04 06:58:00,
2013-06-04 02:03:00,62.7,57.8,29.70,ESE,104,0.0,2.0,84,0.00,,SKC,0.00,VWS V14.01,2013-06-04 07:03:00,
2013-06-04 02:08:00,62.7,57.8,29.70,East,100,3.0,4.0,84,0.00,,SKC,0.00,VWS V14.01,2013-06-04 07:08:00,
2013-06-04 02:13:00,62.6,57.7,29.70,East,98,0.0,5.0,84,0.00,,SKC,0.00,VWS V14.01,2013-06-04 07:13:00,
2013-06-04 02:18:00,62.6,57.7,29.70,East,101,0.0,3.0,84,0.00,,SKC,0.00,VWS V14.01,2013-06-04 07:18:00,
2013-06-04 02:23:00,62.6,57.7,29.70,East,101,0.0,3.0,84,0.00,,SKC,0.00,VWS V14.01,2013-06-04 07:23:00,
2013-06-04 02:28:00,62.6,57.7,29.69,ESE,106,0.0,4.0,84,0.00,,SKC,0.00,VWS V14.01,2013-06-04 07:28:00,
2013-06-04 02:33:00,62.6,57.7,29.69,ESE,114,4.0,4.0,84,0.00,,SKC,0.00,VWS V14.01,2013-06-04 07:33:00,
2013-06-04 02:38:00,62.6,57.7,29.70,SE,126,0.0,7.0,84,0.00,,SKC,0.00,VWS V14.01,2013-06-04 07:38:00,
2013-06-04 02:43:00,62.7,57.8,29.69,SE,125,0.0,7.0,84,0.00,,SKC,0.00,VWS V14.01,2013-06-04 07:43:00,
2013-06-04 02:48:00,62.7,57.8,29.69,SE,129,0.0,5.0,84,0.00,,SKC,0.00,VWS V14.01,2013-06-04 07:48:00,
2013-06-04 02:53:00,62.8,57.9,29.69,SE,131,0.0,9.0,84,0.00,,SKC,0.00,VWS V14.01,2013-06-04 07:53:00,
2013-06-04 02:58:00,62.9,58.0,29.69,SE,136,5.0,6.0,84,0.00,,SKC,0.00,VWS V14.01,2013-06-04 07:58:00,
2013-06-04 03:03:00,63.1,58.2,29.69,ESE,117,2.0,7.0,84,0.00,,SKC,0.00,VWS V14.01,2013-06-04 08:03:00,
2013-06-04 03:08:00,63.2,58.3,29.69,ESE,113,2.0,5.0,84,0.00,,SKC,0.00,VWS V14.01,2013-06-04 08:08:00,
2013-06-04 03:13:00,63.4,58.2,29.69,SE,142,0.0,6.0,83,0.00,,SKC,0.00,VWS V14.01,2013-06-04 08:13:00,
2013-06-04 03:18:00,63.5,58.2,29.69,SE,140,0.0,4.0,83,0.00,,SKC,0.00,VWS V14.01,2013-06-04 08:18:00,
2013-06-04 03:23:00,63.5,58.2,29.68,SE,138,1.0,5.0,83,0.00,,SKC,0.00,VWS V14.01,2013-06-04 08:23:00,
2013-06-04 03:28:00,63.5,58.2,29.68,SE,134,0.0,4.0,83,0.00,,SKC,0.00,VWS V14.01,2013-06-04 08:28:00,
2013-06-04 03:33:00,63.5,58.2,29.69,ESE,117,0.0,10.0,83,0.00,,SKC,0.00,VWS V14.01,2013-06-04 08:33:00,
2013-06-04 03:38:00,63.5,58.2,29.68,ESE,110,0.0,7.0,83,0.00,,SKC,0.00,VWS V14.01,2013-06-04 08:38:00,
2013-06-04 03:43:00,63.6,58.0,29.68,ESE,119,0.0,7.0,82,0.00,,SKC,0.00,VWS V14.01,2013-06-04 08:43:00,
2013-06-04 03:48:00,63.7,58.1,29.68,SE,131,4.0,6.0,82,0.00,,SKC,0.00,VWS V14.01,2013-06-04 08:48:00,
2013-06-04 03:53:00,63.8,58.2,29.68,SE,125,3.0,10.0,82,0.00,,SKC,0.00,VWS V14.01,2013-06-04 08:53:00,
2013-06-04 03:58:00,63.9,58.3,29.68,SE,128,0.0,10.0,82,0.00,,SKC,0.00,VWS V14.01,2013-06-04 08:58:00,
2013-06-04 04:03:00,63.9,58.3,29.68,SSE,155,4.0,10.0,82,0.00,,SKC,0.00,VWS V14.01,2013-06-04 09:03:00,
2013-06-04 04:08:00,63.9,58.3,29.68,SE,137,4.0,9.0,82,0.00,,SKC,0.00,VWS V14.01,2013-06-04 09:08:00,
2013-06-04 04:13:00,64.0,58.4,29.68,SE,137,1.0,9.0,82,0.00,,SKC,0.00,VWS V14.01,2013-06-04 09:13:00,
2013-06-04 04:18:00,64.0,58.4,29.69,SE,136,0.0,5.0,82,0.00,,SKC,0.00,VWS V14.01,2013-06-04 09:18:00,
2013-06-04 04:23:00,64.1,58.5,29.69,SE,141,8.0,10.0,82,0.00,,SKC,0.00,VWS V14.01,2013-06-04 09:23:00,
2013-06-04 04:28:00,64.2,58.6,29.70,SE,129,0.0,8.0,82,0.00,,SKC,0.00,VWS V14.01,2013-06-04 09:28:00,
2013-06-04 04:33:00,64.2,58.6,29.70,SE,138,0.0,0.0,82,0.00,,SKC,0.00,VWS V14.01,2013-06-04 09:33:00,
2013-06-04 04:38:00,64.3,58.7,29.70,SE,136,3.0,10.0,82,0.00,,SKC,0.00,VWS V14.01,2013-06-04 09:38:00,
2013-06-04 04:43:00,64.3,58.7,29.70,SE,132,0.0,3.0,82,0.00,,SKC,0.00,VWS V14.01,2013-06-04 09:43:00,
2013-06-04 04:48:00,64.3,58.7,29.69,SE,136,0.0,10.0,82,0.00,,SKC,0.00,VWS V14.01,2013-06-04 09:48:00,
2013-06-04 04:53:00,64.3,58.7,29.70,SE,138,3.0,5.0,82,0.00,,SKC,0.00,VWS V14.01,2013-06-04 09:53:00,
2013-06-04 04:58:00,64.2,58.6,29.70,SE,139,0.0,6.0,82,0.00,,SKC,0.00,VWS V14.01,2013-06-04 09:58:00,
2013-06-04 05:03:00,64.2,58.6,29.70,SE,139,4.0,5.0,82,0.00,,SKC,0.00,VWS V14.01,2013-06-04 10:03:00,
2013-06-04 05:09:00,64.1,58.5,29.70,SE,132,0.0,11.0,82,0.00,,SKC,0.00,VWS V14.01,2013-06-04 10:09:00,
2013-06-04 05:14:00,64.1,58.8,29.70,SE,140,0.0,7.0,83,0.00,,SKC,0.00,VWS V14.01,2013-06-04 10:14:00,
2013-06-04 05:19:00,64.0,58.7,29.69,SE,136,0.0,7.0,83,0.00,,SKC,0.00,VWS V14.01,2013-06-04 10:19:00,
2013-06-04 05:24:00,63.9,58.6,29.70,SE,143,2.0,10.0,83,0.00,,SKC,0.00,VWS V14.01,2013-06-04 10:24:00,
2013-06-04 05:29:00,63.9,58.6,29.70,SE,126,4.0,10.0,83,0.00,,SKC,0.00,VWS V14.01,2013-06-04 10:29:00,
2013-06-04 05:34:00,63.8,58.9,29.70,SE,139,6.0,9.0,84,0.00,,SKC,0.00,VWS V14.01,2013-06-04 10:34:00,
2013-06-04 05:39:00,63.7,58.8,29.71,SSE,148,5.0,11.0,84,0.00,,SKC,0.00,VWS V14.01,2013-06-04 10:39:00,
2013-06-04 05:44:00,63.7,58.8,29.71,SE,142,5.0,9.0,84,0.00,,SKC,0.00,VWS V14.01,2013-06-04 10:44:00,
2013-06-04 05:49:00,63.7,58.8,29.71,SE,128,0.0,12.0,84,0.00,,SKC,0.00,VWS V14.01,2013-06-04 10:49:00,
2013-06-04 05:54:00,63.7,58.8,29.71,SSE,151,0.0,0.0,84,0.00,,SKC,0.00,VWS V14.01,2013-06-04 10:54:00,
2013-06-04 05:59:00,63.6,58.7,29.71,SE,128,3.0,11.0,84,0.00,,SKC,0.00,VWS V14.01,2013-06-04 10:59:00,
2013-06-04 06:04:00,63.6,59.0,29.71,SE,136,0.0,0.0,85,0.00,,SKC,0.00,VWS V14.01,2013-06-04 11:04:00,
2013-06-04 06:09:00,63.5,58.9,29.71,SE,137,2.0,4.0,85,0.00,,SKC,0.00,VWS V14.01,2013-06-04 11:09:00,
2013-06-04 06:14:00,63.5,58.9,29.71,SE,132,0.0,0.0,85,0.00,,SKC,0.00,VWS V14.01,2013-06-04 11:14:00,
2013-06-04 06:19:00,63.4,58.8,29.72,SE,133,0.0,5.0,85,0.00,,SKC,0.00,VWS V14.01,2013-06-04 11:19:00,
2013-06-04 06:24:00,63.4,59.2,29.71,SE,126,0.0,0.0,86,0.00,,SKC,0.00,VWS V14.01,2013-06-04 11:24:00,
2013-06-04 06:29:00,63.3,59.0,29.71,SE,130,6.0,6.0,86,0.00,,SKC,0.00,VWS V14.01,2013-06-04 11:29:00,
2013-06-04 06:34:00,63.3,59.0,29.72,SE,136,0.0,7.0,86,0.00,,SKC,0.00,VWS V14.01,2013-06-04 11:34:00,
2013-06-04 06:39:00,63.3,59.0,29.71,SE,135,0.0,7.0,86,0.00,,SKC,0.00,VWS V14.01,2013-06-04 11:39:00,
2013-06-04 06:44:00,63.4,59.2,29.71,SE,132,0.0,3.0,86,0.00,,SKC,0.00,VWS V14.01,2013-06-04 11:44:00,
2013-06-04 06:49:00,63.4,59.2,29.71,ESE,115,0.0,4.0,86,0.00,,SKC,0.00,VWS V14.01,2013-06-04 11:49:00,
2013-06-04 06:54:00,63.4,59.5,29.71,ESE,112,0.0,3.0,87,0.00,,SKC,0.00,VWS V14.01,2013-06-04 11:54:00,
2013-06-04 06:59:00,63.4,59.5,29.71,ESE,109,0.0,3.0,87,0.00,,SKC,0.00,VWS V14.01,2013-06-04 11:59:00,
2013-06-04 07:04:00,63.4,59.5,29.71,ESE,111,0.0,0.0,87,0.00,,SKC,0.00,VWS V14.01,2013-06-04 12:04:00,
2013-06-04 07:09:00,63.4,59.5,29.71,ESE,107,0.0,3.0,87,0.00,,SKC,0.00,VWS V14.01,2013-06-04 12:09:00,
2013-06-04 07:14:00,63.4,59.5,29.71,ESE,107,0.0,1.0,87,0.00,,SKC,0.00,VWS V14.01,2013-06-04 12:14:00,
2013-06-04 07:19:00,63.5,59.6,29.71,ESE,109,1.0,2.0,87,0.00,,SKC,0.00,VWS V14.01,2013-06-04 12:19:00,
2013-06-04 07:24:00,63.5,59.6,29.72,ESE,107,0.0,0.0,87,0.00,,SKC,0.00,VWS V14.01,2013-06-04 12:24:00,
2013-06-04 07:29:00,63.6,59.7,29.72,ESE,107,0.0,0.0,87,0.00,,SKC,0.00,VWS V14.01,2013-06-04 12:29:00,
2013-06-04 07:34:00,63.6,60.0,29.72,ESE,107,0.0,0.0,88,0.00,,SKC,0.00,VWS V14.01,2013-06-04 12:34:00,
2013-06-04 07:39:00,63.7,60.1,29.72,ESE,107,0.0,0.0,88,0.00,,SKC,0.00,VWS V14.01,2013-06-04 12:39:00,
2013-06-04 07:44:00,63.8,60.2,29.73,ESE,107,0.0,1.0,88,0.00,,SKC,0.00,VWS V14.01,2013-06-04 12:44:00,
2013-06-04 07:49:00,63.9,60.3,29.74,ESE,108,0.0,1.0,88,0.00,,SKC,0.00,VWS V14.01,2013-06-04 12:49:00,
2013-06-04 07:54:00,64.0,60.4,29.74,ESE,109,0.0,2.0,88,0.00,,SKC,0.00,VWS V14.01,2013-06-04 12:54:00,
2013-06-04 07:59:00,64.1,60.5,29.73,ESE,109,0.0,5.0,88,0.00,,SKC,0.00,VWS V14.01,2013-06-04 12:59:00,
2013-06-04 08:04:00,64.2,60.6,29.73,ESE,109,0.0,0.0,88,0.00,,SKC,0.00,VWS V14.01,2013-06-04 13:04:00,
2013-06-04 08:09:00,64.3,60.7,29.74,ESE,109,0.0,1.0,88,0.00,,SKC,0.00,VWS V14.01,2013-06-04 13:09:00,
2013-06-04 08:14:00,64.3,60.7,29.74,ESE,116,0.0,0.0,88,0.00,,SKC,0.00,VWS V14.01,2013-06-04 13:14:00,
2013-06-04 08:19:00,64.4,60.8,29.74,SE,127,0.0,7.0,88,0.00,,SKC,0.00,VWS V14.01,2013-06-04 13:19:00,
2013-06-04 08:24:00,64.5,60.9,29.74,SE,126,0.0,0.0,88,0.00,,SKC,0.00,VWS V14.01,2013-06-04 13:24:00,
2013-06-04 08:29:00,64.5,60.9,29.73,SE,129,0.0,5.0,88,0.00,,SKC,0.00,VWS V14.01,2013-06-04 13:29:00,
2013-06-04 08:34:00,64.6,60.7,29.73,SE,128,0.0,0.0,87,0.00,,SKC,0.00,VWS V14.01,2013-06-04 13:34:00,
2013-06-04 08:39:00,64.7,61.1,29.73,SE,130,0.0,3.0,88,0.00,,SKC,0.00,VWS V14.01,2013-06-04 13:39:00,
2013-06-04 08:44:00,64.7,61.1,29.73,SE,136,0.0,9.0,88,0.00,,SKC,0.00,VWS V14.01,2013-06-04 13:44:00,
2013-06-04 08:49:00,64.8,60.8,29.73,SE,130,0.0,9.0,87,0.00,,SKC,0.00,VWS V14.01,2013-06-04 13:49:00,
2013-06-04 08:54:00,64.9,61.3,29.74,SE,131,0.0,3.0,88,0.00,,SKC,0.00,VWS V14.01,2013-06-04 13:54:00,
2013-06-04 09:00:00,65.1,61.5,29.74,SE,132,0.0,3.0,88,0.00,,SKC,0.00,VWS V14.01,2013-06-04 14:00:00,
2013-06-04 09:05:00,65.7,62.4,29.75,SE,140,4.0,4.0,89,0.00,,SKC,0.00,VWS V14.01,2013-06-04 14:05:00,
2013-06-04 09:10:00,66.4,62.7,29.75,SE,146,0.0,7.0,88,0.00,,SKC,0.00,VWS V14.01,2013-06-04 14:10:00,
2013-06-04 09:15:00,67.2,62.9,29.76,SE,143,1.0,5.0,86,0.00,,SKC,0.00,VWS V14.01,2013-06-04 14:15:00,
2013-06-04 09:20:00,67.6,62.9,29.76,SSE,149,0.0,6.0,85,0.00,,SKC,0.00,VWS V14.01,2013-06-04 14:20:00,
2013-06-04 09:25:00,67.9,62.9,29.76,SSE,152,0.0,4.0,84,0.00,,SKC,0.00,VWS V14.01,2013-06-04 14:25:00,
2013-06-04 09:30:00,68.0,63.0,29.76,SSE,160,3.0,6.0,84,0.00,,SKC,0.00,VWS V14.01,2013-06-04 14:30:00,
2013-06-04 09:35:00,68.3,63.3,29.76,SSE,154,0.0,9.0,84,0.00,,SKC,0.00,VWS V14.01,2013-06-04 14:35:00,
2013-06-04 09:40:00,68.3,62.9,29.76,SSE,156,0.0,9.0,83,0.00,,SKC,0.00,VWS V14.01,2013-06-04 14:40:00,
2013-06-04 09:45:00,68.3,62.9,29.76,SSE,157,0.0,1.0,83,0.00,,SKC,0.00,VWS V14.01,2013-06-04 14:45:00,
2013-06-04 09:50:00,68.2,62.8,29.76,SSE,148,7.0,7.0,83,0.00,,SKC,0.00,VWS V14.01,2013-06-04 14:50:00,
2013-06-04 09:55:00,68.0,62.7,29.76,SSE,148,0.0,4.0,83,0.00,,SKC,0.00,VWS V14.01,2013-06-04 14:55:00,
2013-06-04 10:00:00,68.0,63.0,29.76,SSE,148,0.0,4.0,84,0.00,,SKC,0.00,VWS V14.01,2013-06-04 15:00:00,
2013-06-04 10:05:00,68.1,63.4,29.76,SSE,148,0.0,0.0,85,0.00,,SKC,0.00,VWS V14.01,2013-06-04 15:05:00,
2013-06-04 10:10:00,68.4,63.7,29.76,SSE,153,0.0,5.0,85,0.00,,SKC,0.00,VWS V14.01,2013-06-04 15:10:00,
2013-06-04 10:15:00,68.8,63.8,29.76,SSE,153,0.0,1.0,84,0.00,,SKC,0.00,VWS V14.01,2013-06-04 15:15:00,
2013-06-04 10:20:00,69.0,63.6,29.76,SSE,153,0.0,6.0,83,0.00,,SKC,0.00,VWS V14.01,2013-06-04 15:20:00,
2013-06-04 10:25:00,69.1,63.7,29.76,SE,146,2.0,9.0,83,0.00,,SKC,0.00,VWS V14.01,2013-06-04 15:25:00,
2013-06-04 10:30:00,69.2,64.2,29.76,SE,145,0.0,9.0,84,0.00,,SKC,0.00,VWS V14.01,2013-06-04 15:30:00,
2013-06-04 10:35:00,69.4,64.4,29.75,SE,145,0.0,0.0,84,0.00,,SKC,0.00,VWS V14.01,2013-06-04 15:35:00,
2013-06-04 10:40:00,69.5,64.1,29.76,SSE,161,0.0,8.0,83,0.00,,SKC,0.00,VWS V14.01,2013-06-04 15:40:00,
2013-06-04 10:45:00,69.7,64.3,29.75,SSE,161,0.0,5.0,83,0.00,,SKC,0.00,VWS V14.01,2013-06-04 15:45:00,
2013-06-04 10:50:00,69.9,64.8,29.76,South,171,0.0,11.0,84,0.00,,SKC,0.00,VWS V14.01,2013-06-04 15:50:00,
2013-06-04 10:55:00,70.3,64.9,29.76,SSE,165,0.0,1.0,83,0.00,,SKC,0.00,VWS V14.01,2013-06-04 15:55:00,
2013-06-04 11:00:00,70.6,64.8,29.76,SE,140,0.0,9.0,82,0.00,,SKC,0.00,VWS V14.01,2013-06-04 16:00:00,
2013-06-04 11:05:00,70.8,65.0,29.76,SSE,149,2.0,7.0,82,0.00,,SKC,0.00,VWS V14.01,2013-06-04 16:05:00,
2013-06-04 11:10:00,71.0,64.9,29.76,SE,142,9.0,10.0,81,0.00,,SKC,0.00,VWS V14.01,2013-06-04 16:10:00,
2013-06-04 11:15:00,71.1,65.0,29.76,SSE,154,0.0,4.0,81,0.00,,SKC,0.00,VWS V14.01,2013-06-04 16:15:00,
2013-06-04 11:20:00,71.3,65.5,29.76,SSE,150,0.0,7.0,82,0.00,,SKC,0.00,VWS V14.01,2013-06-04 16:20:00,
2013-06-04 11:25:00,71.6,65.8,29.75,SSE,154,1.0,5.0,82,0.00,,SKC,0.00,VWS V14.01,2013-06-04 16:25:00,
2013-06-04 11:30:00,71.8,65.7,29.75,SSE,153,0.0,7.0,81,0.00,,SKC,0.00,VWS V14.01,2013-06-04 16:30:00,
2013-06-04 11:35:00,72.1,66.3,29.75,SE,140,5.0,5.0,82,0.00,,SKC,0.00,VWS V14.01,2013-06-04 16:35:00,
2013-06-04 11:40:00,72.4,66.2,29.75,SE,137,0.0,7.0,81,0.00,,SKC,0.00,VWS V14.01,2013-06-04 16:40:00,
2013-06-04 11:45:00,72.6,66.1,29.75,SE,140,1.0,6.0,80,0.00,,SKC,0.00,VWS V14.01,2013-06-04 16:45:00,
2013-06-04 11:50:00,72.8,66.3,29.75,SE,146,0.0,6.0,80,0.00,,SKC,0.00,VWS V14.01,2013-06-04 16:50:00,
2013-06-04 11:55:00,73.1,66.6,29.75,SSE,158,3.0,7.0,80,0.00,,SKC,0.00,VWS V14.01,2013-06-04 16:55:00,
2013-06-04 12:02:00,73.4,66.1,29.75,SSE,152,0.0,0.0,78,0.00,,SKC,0.00,VWS V14.01,2013-06-04 17:02:00,
2013-06-04 12:07:00,73.5,65.9,29.75,SSE,157,5.0,14.0,77,0.00,,SKC,0.00,VWS V14.01,2013-06-04 17:07:00,
2013-06-04 12:12:00,73.7,66.1,29.74,SE,144,7.0,14.0,77,0.00,,SKC,0.00,VWS V14.01,2013-06-04 17:12:00,
2013-06-04 12:17:00,73.9,66.6,29.74,SSE,149,1.0,9.0,78,0.00,,SKC,0.00,VWS V14.01,2013-06-04 17:17:00,
2013-06-04 12:22:00,74.1,66.8,29.74,SSE,155,3.0,11.0,78,0.00,,SKC,0.00,VWS V14.01,2013-06-04 17:22:00,
2013-06-04 12:27:00,74.1,65.7,29.73,SE,130,4.0,16.0,75,0.00,,SKC,0.00,VWS V14.01,2013-06-04 17:27:00,
2013-06-04 12:32:00,74.1,66.4,29.73,SSE,154,4.0,16.0,77,0.00,,SKC,0.00,VWS V14.01,2013-06-04 17:32:00,
2013-06-04 12:37:00,74.0,66.0,29.74,SE,144,0.0,15.0,76,0.00,,SKC,0.00,VWS V14.01,2013-06-04 17:37:00,
2013-06-04 12:42:00,74.0,66.3,29.74,South,185,0.0,15.0,77,0.00,,SKC,0.00,VWS V14.01,2013-06-04 17:42:00,
2013-06-04 12:47:00,73.9,66.2,29.74,SE,138,0.0,10.0,77,0.00,,SKC,0.00,VWS V14.01,2013-06-04 17:47:00,
2013-06-04 12:52:00,73.7,66.1,29.74,SSE,165,4.0,11.0,77,0.00,,SKC,0.00,VWS V14.01,2013-06-04 17:52:00,
2013-06-04 12:57:00,73.4,65.8,29.74,SE,126,0.0,8.0,77,0.00,,SKC,0.00,VWS V14.01,2013-06-04 17:57:00,
2013-06-04 13:02:00,73.0,65.7,29.73,SE,144,8.0,11.0,78,0.00,,SKC,0.00,VWS V14.01,2013-06-04 18:02:00,
2013-06-04 13:07:00,72.5,65.3,29.73,SE,138,4.0,14.0,78,0.00,,SKC,0.00,VWS V14.01,2013-06-04 18:07:00,
2013-06-04 13:12:00,72.2,65.3,29.74,SSE,167,0.0,14.0,79,0.00,,SKC,0.00,VWS V14.01,2013-06-04 18:12:00,
2013-06-04 13:17:00,72.1,65.6,29.74,SE,138,1.0,11.0,80,0.00,,SKC,0.00,VWS V14.01,2013-06-04 18:17:00,
2013-06-04 13:22:00,72.2,66.1,29.73,SE,146,0.0,12.0,81,0.00,,SKC,0.00,VWS V14.01,2013-06-04 18:22:00,
2013-06-04 13:27:00,72.2,66.1,29.72,SE,131,0.0,11.0,81,0.00,,SKC,0.00,VWS V14.01,2013-06-04 18:27:00,
2013-06-04 13:32:00,72.3,66.2,29.73,SE,138,0.0,11.0,81,0.00,,SKC,0.00,VWS V14.01,2013-06-04 18:32:00,
2013-06-04 13:37:00,72.1,65.6,29.73,SE,137,0.0,9.0,80,0.00,,SKC,0.00,VWS V14.01,2013-06-04 18:37:00,
2013-06-04 13:42:00,71.8,65.7,29.73,ESE,122,0.0,9.0,81,0.00,,SKC,0.00,VWS V14.01,2013-06-04 18:42:00,
2013-06-04 13:47:00,71.5,65.7,29.73,SE,144,0.0,9.0,82,0.00,,SKC,0.00,VWS V14.01,2013-06-04 18:47:00,
2013-06-04 13:52:00,71.3,65.5,29.73,SSE,150,2.0,9.0,82,0.00,,SKC,0.00,VWS V14.01,2013-06-04 18:52:00,
2013-06-04 13:57:00,71.3,65.9,29.73,SSE,152,2.0,3.0,83,0.00,,SKC,0.00,VWS V14.01,2013-06-04 18:57:00,
2013-06-04 14:02:00,71.2,65.8,29.73,SE,144,0.0,7.0,83,0.00,,SKC,0.00,VWS V14.01,2013-06-04 19:02:00,
2013-06-04 14:07:00,71.2,65.8,29.73,SE,146,3.0,6.0,83,0.00,,SKC,0.00,VWS V14.01,2013-06-04 19:07:00,
2013-06-04 14:12:00,71.2,65.8,29.73,SE,135,0.0,8.0,83,0.00,,SKC,0.00,VWS V14.01,2013-06-04 19:12:00,
2013-06-04 14:17:00,71.2,66.1,29.72,SE,136,2.0,5.0,84,0.00,,SKC,0.00,VWS V14.01,2013-06-04 19:17:00,
2013-06-04 14:22:00,71.2,66.1,29.72,ESE,122,0.0,5.0,84,0.00,,SKC,0.00,VWS V14.01,2013-06-04 19:22:00,
2013-06-04 14:27:00,71.2,66.1,29.73,ESE,119,0.0,5.0,84,0.00,,SKC,0.00,VWS V14.01,2013-06-04 19:27:00,
2013-06-04 14:32:00,71.2,66.1,29.74,ESE,118,0.0,5.0,84,0.00,,SKC,0.00,VWS V14.01,2013-06-04 19:32:00,
2013-06-04 14:37:00,71.3,66.2,29.74,ESE,118,0.0,0.0,84,0.00,,SKC,0.00,VWS V14.01,2013-06-04 19:37:00,
2013-06-04 14:42:00,71.3,66.2,29.75,ESE,118,0.0,1.0,84,0.00,,SKC,0.00,VWS V14.01,2013-06-04 19:42:00,
2013-06-04 14:48:00,71.3,66.2,29.74,ESE,118,0.0,0.0,84,0.00,,SKC,0.00,VWS V14.01,2013-06-04 19:48:00,
2013-06-04 14:53:00,71.5,66.8,29.74,ESE,118,0.0,1.0,85,0.00,,SKC,0.00,VWS V14.01,2013-06-04 19:53:00,
2013-06-04 14:57:00,71.6,66.5,29.74,ESE,118,0.0,4.0,84,0.00,,SKC,0.00,VWS V14.01,2013-06-04 19:57:00,
2013-06-04 15:03:00,71.9,66.8,29.74,ESE,118,0.0,4.0,84,0.00,,SKC,0.00,VWS V14.01,2013-06-04 20:03:00,
2013-06-04 15:08:00,72.2,67.1,29.74,ESE,118,0.0,2.0,84,0.00,,SKC,0.00,VWS V14.01,2013-06-04 20:08:00,
2013-06-04 15:13:00,72.6,67.2,29.74,ESE,118,0.0,2.0,83,0.00,,SKC,0.00,VWS V14.01,2013-06-04 20:13:00,
2013-06-04 15:18:00,73.0,67.9,29.74,ESE,118,0.0,2.0,84,0.00,,SKC,0.00,VWS V14.01,2013-06-04 20:18:00,
2013-06-04 15:23:00,73.3,67.1,29.74,ESE,118,0.0,2.0,81,0.00,,SKC,0.00,VWS V14.01,2013-06-04 20:23:00,
2013-06-04 15:28:00,73.6,67.4,29.74,ESE,118,0.0,0.0,81,0.00,,SKC,0.00,VWS V14.01,2013-06-04 20:28:00,
2013-06-04 15:33:00,74.0,68.2,29.74,ESE,117,0.0,3.0,82,0.00,,SKC,0.00,VWS V14.01,2013-06-04 20:33:00,
2013-06-04 15:38:00,74.7,68.8,29.74,ESE,117,0.0,1.0,82,0.00,,SKC,0.00,VWS V14.01,2013-06-04 20:38:00,
2013-06-04 15:43:00,75.0,68.1,29.74,ESE,118,0.0,3.0,79,0.00,,SKC,0.00,VWS V14.01,2013-06-04 20:43:00,
2013-06-04 15:48:00,75.3,68.7,29.74,ESE,118,0.0,1.0,80,0.00,,SKC,0.00,VWS V14.01,2013-06-04 20:48:00,
2013-06-04 15:53:00,75.6,68.6,29.74,SE,124,1.0,4.0,79,0.00,,SKC,0.00,VWS V14.01,2013-06-04 20:53:00,
2013-06-04 15:58:00,75.8,68.1,29.74,SE,128,0.0,3.0,77,0.00,,SKC,0.00,VWS V14.01,2013-06-04 20:58:00,
2013-06-04 16:03:00,75.8,68.5,29.74,SE,128,0.0,3.0,78,0.00,,SKC,0.00,VWS V14.01,2013-06-04 21:03:00,
2013-06-04 16:08:00,76.0,68.7,29.74,SE,128,0.0,3.0,78,0.00,,SKC,0.00,VWS V14.01,2013-06-04 21:08:00,
2013-06-04 16:13:00,76.1,68.4,29.74,SE,127,0.0,3.0,77,0.00,,SKC,0.00,VWS V14.01,2013-06-04 21:13:00,
2013-06-04 16:18:00,76.1,68.4,29.74,SE,127,0.0,1.0,77,0.00,,SKC,0.00,VWS V14.01,2013-06-04 21:18:00,
2013-06-04 16:23:00,76.0,68.3,29.74,SE,127,0.0,1.0,77,0.00,,SKC,0.00,VWS V14.01,2013-06-04 21:23:00,
2013-06-04 16:28:00,75.8,68.1,29.74,SE,127,0.0,0.0,77,0.00,,SKC,0.00,VWS V14.01,2013-06-04 21:28:00,
2013-06-04 16:33:00,75.6,68.3,29.74,SE,127,0.0,0.0,78,0.00,,SKC,0.00,VWS V14.01,2013-06-04 21:33:00,
2013-06-04 16:38:00,75.7,69.1,29.74,SE,127,0.0,0.0,80,0.00,,SKC,0.00,VWS V14.01,2013-06-04 21:38:00,
2013-06-04 16:43:00,75.9,69.3,29.74,SE,127,0.0,0.0,80,0.00,,SKC,0.00,VWS V14.01,2013-06-04 21:43:00,
2013-06-04 16:48:00,76.1,69.1,29.74,SE,127,0.0,1.0,79,0.00,,SKC,0.00,VWS V14.01,2013-06-04 21:48:00,
2013-06-04 16:53:00,76.2,68.8,29.74,SE,127,0.0,1.0,78,0.00,,SKC,0.00,VWS V14.01,2013-06-04 21:53:00,
2013-06-04 16:58:00,76.4,69.4,29.74,SE,127,0.0,1.0,79,0.00,,SKC,0.00,VWS V14.01,2013-06-04 21:58:00,
2013-06-04 17:03:00,76.6,69.6,29.74,SE,127,0.0,1.0,79,0.00,,SKC,0.00,VWS V14.01,2013-06-04 22:03:00,
2013-06-04 17:08:00,77.0,69.2,29.73,SE,127,0.0,0.0,77,0.00,,SKC,0.00,VWS V14.01,2013-06-04 22:08:00,
2013-06-04 17:13:00,77.6,69.8,29.73,SE,127,0.0,0.0,77,0.00,,SKC,0.00,VWS V14.01,2013-06-04 22:13:00,
2013-06-04 17:18:00,78.3,68.9,29.73,SE,132,0.0,6.0,73,0.00,,SKC,0.00,VWS V14.01,2013-06-04 22:18:00,
2013-06-04 17:23:00,78.7,68.9,29.73,SE,138,6.0,7.0,72,0.00,,SKC,0.00,VWS V14.01,2013-06-04 22:23:00,
2013-06-04 17:28:00,78.7,68.9,29.73,SE,138,0.0,4.0,72,0.00,,SKC,0.00,VWS V14.01,2013-06-04 22:28:00,
2013-06-04 17:33:00,78.4,68.6,29.74,SE,129,0.0,4.0,72,0.00,,SKC,0.00,VWS V14.01,2013-06-04 22:33:00,
2013-06-04 17:38:00,78.1,69.5,29.73,SE,128,0.0,0.0,75,0.00,,SKC,0.00,VWS V14.01,2013-06-04 22:38:00,
2013-06-04 17:43:00,78.2,69.2,29.74,SE,140,0.0,6.0,74,0.00,,SKC,0.00,VWS V14.01,2013-06-04 22:43:00,
2013-06-04 17:48:00,78.2,68.4,29.74,ESE,103,0.0,5.0,72,0.00,,SKC,0.00,VWS V14.01,2013-06-04 22:48:00,
2013-06-04 17:53:00,78.1,69.1,29.74,ESE,107,0.0,5.0,74,0.00,,SKC,0.00,VWS V14.01,2013-06-04 22:53:00,
2013-06-04 17:58:00,78.0,68.7,29.74,ESE,116,0.0,5.0,73,0.00,,SKC,0.00,VWS V14.01,2013-06-04 22:58:00,
2013-06-04 18:03:00,77.9,68.6,29.74,ESE,116,0.0,3.0,73,0.00,,SKC,0.00,VWS V14.01,2013-06-04 23:03:00,
2013-06-04 18:08:00,77.8,68.5,29.74,ESE,117,1.0,4.0,73,0.00,,SKC,0.00,VWS V14.01,2013-06-04 23:08:00,
2013-06-04 18:13:00,77.8,68.1,29.74,SE,143,0.0,6.0,72,0.00,,SKC,0.00,VWS V14.01,2013-06-04 23:13:00,
2013-06-04 18:18:00,77.9,68.2,29.74,SE,136,5.0,9.0,72,0.00,,SKC,0.00,VWS V14.01,2013-06-04 23:18:00,
2013-06-04 18:23:00,77.9,68.6,29.74,SE,129,0.0,9.0,73,0.00,,SKC,0.00,VWS V14.01,2013-06-04 23:23:00,
2013-06-04 18:28:00,77.7,68.4,29.74,SE,130,6.0,10.0,73,0.00,,SKC,0.00,VWS V14.01,2013-06-04 23:28:00,
2013-06-04 18:33:00,77.4,68.1,29.74,SE,135,3.0,10.0,73,0.00,,SKC,0.00,VWS V14.01,2013-06-04 23:33:00,
2013-06-04 18:38:00,76.9,68.0,29.74,SE,138,1.0,7.0,74,0.00,,SKC,0.00,VWS V14.01,2013-06-04 23:38:00,
2013-06-04 18:43:00,76.4,67.5,29.74,SE,128,7.0,7.0,74,0.00,,SKC,0.00,VWS V14.01,2013-06-04 23:43:00,
2013-06-04 18:48:00,76.2,67.7,29.74,SE,132,0.0,6.0,75,0.00,,SKC,0.00,VWS V14.01,2013-06-04 23:48:00,
2013-06-04 18:53:00,76.0,67.1,29.74,SE,138,1.0,1.0,74,0.00,,SKC,0.00,VWS V14.01,2013-06-04 23:53:00,
2013-06-04 18:58:00,75.7,66.8,29.74,SE,130,1.0,10.0,74,0.00,,SKC,0.00,VWS V14.01,2013-06-04 23:58:00,
2013-06-04 19:03:00,75.5,67.0,29.75,SE,138,0.0,10.0,75,0.00,,SKC,0.00,VWS V14.01,2013-06-05 00:03:00,
2013-06-04 19:08:00,75.2,66.3,29.75,SE,143,5.0,5.0,74,0.00,,SKC,0.00,VWS V14.01,2013-06-05 00:08:00,
2013-06-04 19:13:00,75.0,66.6,29.75,SE,140,0.0,6.0,75,0.00,,SKC,0.00,VWS V14.01,2013-06-05 00:13:00,
2013-06-04 19:18:00,74.8,66.7,29.75,SE,136,0.0,5.0,76,0.00,,SKC,0.00,VWS V14.01,2013-06-05 00:18:00,
2013-06-04 19:23:00,74.7,66.6,29.75,SSE,149,0.0,9.0,76,0.00,,SKC,0.00,VWS V14.01,2013-06-05 00:23:00,
2013-06-04 19:28:00,74.4,66.3,29.75,SE,142,3.0,8.0,76,0.00,,SKC,0.00,VWS V14.01,2013-06-05 00:28:00,
2013-06-04 19:33:00,74.2,66.5,29.75,SE,138,0.0,8.0,77,0.00,,SKC,0.00,VWS V14.01,2013-06-05 00:33:00,
2013-06-04 19:38:00,73.9,66.2,29.75,SE,142,0.0,7.0,77,0.00,,SKC,0.00,VWS V14.01,2013-06-05 00:38:00,
2013-06-04 19:43:00,73.7,66.1,29.75,SE,142,4.0,4.0,77,0.00,,SKC,0.00,VWS V14.01,2013-06-05 00:43:00,
2013-06-04 19:48:00,73.6,66.3,29.76,SE,142,0.0,6.0,78,0.00,,SKC,0.00,VWS V14.01,2013-06-05 00:48:00,
2013-06-04 19:53:00,73.4,66.1,29.76,SE,142,0.0,6.0,78,0.00,,SKC,0.00,VWS V14.01,2013-06-05 00:53:00,
2013-06-04 19:58:00,73.3,66.0,29.76,SE,142,0.0,0.0,78,0.00,,SKC,0.00,VWS V14.01,2013-06-05 00:58:00,
2013-06-04 20:03:00,73.1,65.5,29.76,SE,138,0.0,0.0,77,0.00,,SKC,0.00,VWS V14.01,2013-06-05 01:03:00,
2013-06-04 20:08:00,72.9,65.3,29.76,SE,136,0.0,4.0,77,0.00,,SKC,0.00,VWS V14.01,2013-06-05 01:08:00,
2013-06-04 20:13:00,72.6,65.0,29.76,SE,142,0.0,0.0,77,0.00,,SKC,0.00,VWS V14.01,2013-06-05 01:13:00,
2013-06-04 20:18:00,72.4,64.8,29.76,SE,142,1.0,6.0,77,0.00,,SKC,0.00,VWS V14.01,2013-06-05 01:18:00,
2013-06-04 20:23:00,72.1,64.5,29.76,SE,137,2.0,4.0,77,0.00,,SKC,0.00,VWS V14.01,2013-06-05 01:23:00,
2013-06-04 20:29:00,71.9,64.7,29.76,SE,132,0.0,10.0,78,0.00,,SKC,0.00,VWS V14.01,2013-06-05 01:29:00,
2013-06-04 20:34:00,71.7,64.5,29.76,SE,133,0.0,0.0,78,0.00,,SKC,0.00,VWS V14.01,2013-06-05 01:34:00,
2013-06-04 20:39:00,71.4,64.6,29.76,SE,131,0.0,3.0,79,0.00,,SKC,0.00,VWS V14.01,2013-06-05 01:39:00,
2013-06-04 20:44:00,71.2,64.7,29.76,SE,130,0.0,0.0,80,0.00,,SKC,0.00,VWS V14.01,2013-06-05 01:44:00,
2013-06-04 20:49:00,71.0,64.5,29.77,SE,130,0.0,0.0,80,0.00,,SKC,0.00,VWS V14.01,2013-06-05 01:49:00,
2013-06-04 20:54:00,70.8,64.3,29.76,SE,129,2.0,2.0,80,0.00,,SKC,0.00,VWS V14.01,2013-06-05 01:54:00,
2013-06-04 20:59:00,70.5,64.4,29.76,SE,131,0.0,5.0,81,0.00,,SKC,0.00,VWS V14.01,2013-06-05 01:59:00,
2013-06-04 21:04:00,70.3,64.2,29.76,SE,132,2.0,2.0,81,0.00,,SKC,0.00,VWS V14.01,2013-06-05 02:04:00,
2013-06-04 21:09:00,70.0,64.3,29.76,SE,132,5.0,5.0,82,0.00,,SKC,0.00,VWS V14.01,2013-06-05 02:09:00,
2013-06-04 21:14:00,69.8,64.1,29.76,SE,133,0.0,0.0,82,0.00,,SKC,0.00,VWS V14.01,2013-06-05 02:14:00,
2013-06-04 21:19:00,69.7,64.0,29.76,SE,134,2.0,4.0,82,0.00,,SKC,0.00,VWS V14.01,2013-06-05 02:19:00,
2013-06-04 21:24:00,69.5,63.8,29.76,SE,134,0.0,0.0,82,0.00,,SKC,0.00,VWS V14.01,2013-06-05 02:24:00,
2013-06-04 21:29:00,69.3,63.9,29.76,SE,133,0.0,2.0,83,0.00,,SKC,0.00,VWS V14.01,2013-06-05 02:29:00,
2013-06-04 21:34:00,69.1,63.7,29.76,SE,133,0.0,0.0,83,0.00,,SKC,0.00,VWS V14.01,2013-06-05 02:34:00,
2013-06-04 21:39:00,68.9,63.5,29.77,SE,133,0.0,0.0,83,0.00,,SKC,0.00,VWS V14.01,2013-06-05 02:39:00,
2013-06-04 21:44:00,68.8,63.8,29.77,SE,133,0.0,0.0,84,0.00,,SKC,0.00,VWS V14.01,2013-06-05 02:44:00,
2013-06-04 21:49:00,68.6,63.6,29.77,SE,133,0.0,4.0,84,0.00,,SKC,0.00,VWS V14.01,2013-06-05 02:49:00,
2013-06-04 21:54:00,68.4,63.4,29.77,SE,133,0.0,0.0,84,0.00,,SKC,0.00,VWS V14.01,2013-06-05 02:54:00,
2013-06-04 21:59:00,68.3,63.3,29.77,SE,135,0.0,5.0,84,0.00,,SKC,0.00,VWS V14.01,2013-06-05 02:59:00,
2013-06-04 22:04:00,68.1,63.4,29.77,SE,135,4.0,4.0,85,0.00,,SKC,0.00,VWS V14.01,2013-06-05 03:04:00,
2013-06-04 22:09:00,68.0,63.3,29.77,SE,136,0.0,4.0,85,0.00,,SKC,0.00,VWS V14.01,2013-06-05 03:09:00,
2013-06-04 22:14:00,67.8,63.1,29.78,SE,136,0.0,0.0,85,0.00,,SKC,0.00,VWS V14.01,2013-06-05 03:14:00,
2013-06-04 22:19:00,67.7,63.0,29.78,SE,136,0.0,5.0,85,0.00,,SKC,0.00,VWS V14.01,2013-06-05 03:19:00,
2013-06-04 22:24:00,67.6,62.9,29.79,SE,136,0.0,0.0,85,0.00,,SKC,0.00,VWS V14.01,2013-06-05 03:24:00,
2013-06-04 22:29:00,67.5,63.2,29.79,SE,136,0.0,0.0,86,0.00,,SKC,0.00,VWS V14.01,2013-06-05 03:29:00,
2013-06-04 22:34:00,67.4,63.1,29.79,SE,136,0.0,0.0,86,0.00,,SKC,0.00,VWS V14.01,2013-06-05 03:34:00,
2013-06-04 22:39:00,67.3,63.0,29.80,SE,136,0.0,0.0,86,0.00,,SKC,0.00,VWS V14.01,2013-06-05 03:39:00,
2013-06-04 22:44:00,67.2,62.9,29.81,SE,136,0.0,0.0,86,0.00,,SKC,0.00,VWS V14.01,2013-06-05 03:44:00,
2013-06-04 22:49:00,67.1,62.8,29.81,SE,136,0.0,0.0,86,0.00,,SKC,0.00,VWS V14.01,2013-06-05 03:49:00,
2013-06-04 22:54:00,67.0,62.7,29.80,SE,136,0.0,0.0,86,0.00,,SKC,0.00,VWS V14.01,2013-06-05 03:54:00,
2013-06-04 22:59:00,66.8,62.5,29.80,SE,136,0.0,0.0,86,0.00,,SKC,0.00,VWS V14.01,2013-06-05 03:59:00,
2013-06-04 23:01:00,66.7,62.4,29.81,SE,136,0.0,0.0,86,0.00,,SKC,0.00,VWS V14.01,2013-06-05 04:01:00,
2013-06-04 23:02:00,66.7,62.7,29.81,SE,136,0.0,0.0,87,0.00,,SKC,0.00,VWS V14.01,2013-06-05 04:02:00,
2013-06-04 23:07:00,66.5,62.5,29.81,SE,136,0.0,0.0,87,0.00,,SKC,0.00,VWS V14.01,2013-06-05 04:07:00,
2013-06-04 23:12:00,66.3,62.3,29.81,SE,136,0.0,0.0,87,0.00,,SKC,0.00,VWS V14.01,2013-06-05 04:12:00,
2013-06-04 23:17:00,66.1,62.5,29.80,SE,136,0.0,0.0,88,0.00,,SKC,0.00,VWS V14.01,2013-06-05 04:17:00,
2013-06-04 23:22:00,65.9,62.2,29.80,SE,136,0.0,0.0,88,0.00,,SKC,0.00,VWS V14.01,2013-06-05 04:22:00,
2013-06-04 23:27:00,65.8,62.2,29.80,SE,136,0.0,0.0,88,0.00,,SKC,0.00,VWS V14.01,2013-06-05 04:27:00,
2013-06-04 23:32:00,65.6,62.3,29.80,SE,136,0.0,0.0,89,0.00,,SKC,0.00,VWS V14.01,2013-06-05 04:32:00,
2013-06-04 23:37:00,65.5,62.2,29.80,SE,136,0.0,0.0,89,0.00,,SKC,0.00,VWS V14.01,2013-06-05 04:37:00,
2013-06-04 23:42:00,65.4,62.1,29.79,SE,136,0.0,0.0,89,0.00,,SKC,0.00,VWS V14.01,2013-06-05 04:42:00,
2013-06-04 23:47:00,65.3,62.0,29.79,SE,136,0.0,0.0,89,0.00,,SKC,0.00,VWS V14.01,2013-06-05 04:47:00,
2013-06-04 23:52:00,65.1,62.1,29.79,SE,136,0.0,0.0,90,0.00,,SKC,0.00,VWS V14.01,2013-06-05 04:52:00,
2013-06-04 23:57:00,65.1,62.1,29.79,SE,136,0.0,0.0,90,0.00,,SKC,0.00,VWS V14.01,2013-06-05 04:57:00,